Retour au catalogue

STARLINK-37579

ActifCommunicationsVLEO
NORAD 69843·PAYLOAD·🇺🇸 United States

Lancé Jul 5, 2026 depuis Cape Canaveral Space Force Station

Loading…

Prochains Passages (prochaines 24 heures)

TLE

FraisSource: CelesTrak SupGP

Époque: Sep 15, 2026, 03:01 UTC

1 69843C 26154AA  26258.12618056  .00070987  00000+0  20966-2 0  2583
2 69843  53.1600 357.0737 0001116  82.0989 131.2117 15.34365457    14

Suivez STARLINK-37579 en temps réel avec AllMySat

Download on the App Store